Blue Ridge Airport

Jump to: basic info | weather | frequencies | runways | comments

Related pages: nearby airports | nearby navaids | notams | map

Basic information (top)

Codes: KMTV MTV
Location: lon 36.630699, lat -80.018303, elev 941 ft / 287 m msl
Status: small_airport

Weather (top)

Current conditions (rec'd 2015/04/01 02:35Z):

KMTV 010235Z AUTO 00000KT 10SM CLR 17/04 A2980 RMK AO2 T01740035

Airport forecast for Smith Reynolds Airport 31nm (58km) SSW (rec'd 2015/03/31 00:45Z):

TAF KINT 312340Z 0100/0124 25011KT P6SM SCT070 
     FM010400 35007KT P6SM SKC 
     FM011300 03006KT P6SM SKC

Frequencies (top)

Verify before use: may be inaccurate or out of date.

A/D: 124.35 MHz (GREENSBORO APP/DEP)
AWOS: 118.45 MHz (AWOS 3)
CLD: 124.85 MHz (CLNC DEL)
UNIC: 122.7 MHz (CTAF/UNICOM)

Runways (top)

12/30: 5,002 x 100 ft (1,525 x 30 m) — paved — lighted

Latest comments (top)

Runway Cafe: Great little place to eat right next to ... [read]

More... (top)

See also NOTAMs and nearby airports and navaids, or visit the Blue Ridge Airport page at the main OurAirports website..